Kimball, NE

5:49 AM MDT on October 15, 2019 (GMT -0600)
Kimball Municipal-Arraj

Weather History for KIBM - September, 2019

Change the Weather History Date:

Saturday, September 21, 2019

  Actual Average (WUND) Record (WUND)
Temperature  
Mean Temperature 60 °F -  
Max Temperature 75 °F - - (-1)
Min Temperature 46 °F - - (-1)
Degree Days  
Heating Degree Days 4    
Growing Degree Days 10 (Base 50)    
Moisture  
Dew Point 31 °F    
Average Humidity 38    
Maximum Humidity 94    
Minimum Humidity 14    
Precipitation  
Precipitation 0.24 in - - ()
Sea Level Pressure  
Sea Level Pressure 30.01 in    
Wind  
Wind Speed 11 mph (NW)    
Max Wind Speed 25 mph    
Max Gust Speed 34 mph    
Visibility 10 miles    
Events Rain    
Averages and records for this station are not official NWS values.
T = Trace of Precipitation, MM = Missing Value Source: NWS Daily Summary

Daily Weather History Graph

Daily Weather History Graph

Search for Another Location

Airport or City:

Astronomy

Sep. 21, 2019 Rise Set
Actual Time 7:41 AM CDT 7:53 PM CDT
Civil Twilight 7:13 AM CDT 8:21 PM CDT
Nautical Twilight 6:41 AM CDT 8:53 PM CDT
Astronomical Twilight 6:08 AM CDT 9:26 PM CDT
Moon No Moon Rise 2:53 PM CDT (9/21)
Length of Visible Light 13h 07m
Length of Day
12h 12m
Waning Gibbous, 54% of the Moon is Illuminated
Sep 21
Waning Gibbous
Sep 21
Last Quarter
Sep 28
New
Oct 5
First Quarter
Oct 13
Full

Hourly Weather History & Observations

Time (CDT) Temp. Windchill Dew Point Humidity Pressure Visibility Wind Dir Wind Speed Gust Speed Precip Events Conditions
12:15 AM 63.1 °F - 41.9 °F 46% 29.87 in 10.0 mi NW 12.7 mph - N/A   Clear
12:35 AM 62.2 °F - 41.2 °F 46% 29.88 in 10.0 mi NW 10.4 mph - N/A   Clear
12:55 AM 61.3 °F - 36.3 °F 39% 29.89 in 10.0 mi NW 10.4 mph - N/A   Clear
1:15 AM 59.2 °F - 34.0 °F 39% 29.89 in 10.0 mi NW 9.2 mph - N/A   Clear
1:35 AM 57.6 °F - 32.0 °F 38% 29.89 in 10.0 mi WNW 8.1 mph - N/A   Clear
1:55 AM 59.2 °F - 30.7 °F 34% 29.90 in 10.0 mi NW 11.5 mph - N/A   Clear
2:15 AM 59.4 °F - 30.2 °F 33% 29.91 in 10.0 mi NW 10.4 mph - N/A   Clear
2:35 AM 57.7 °F - 30.7 °F 36% 29.92 in 10.0 mi NW 6.9 mph - N/A   Clear
2:55 AM 54.7 °F - 31.8 °F 42% 29.93 in 10.0 mi NW 8.1 mph - N/A   Clear
3:15 AM 54.1 °F - 32.0 °F 43% 29.94 in 10.0 mi NW 8.1 mph - N/A   Clear
3:35 AM 52.9 °F - 32.0 °F 45% 29.94 in 10.0 mi NW 10.4 mph - N/A   Clear
3:55 AM 55.2 °F - 31.1 °F 40% 29.94 in 10.0 mi NW 10.4 mph - N/A   Clear
4:15 AM 55.0 °F - 31.1 °F 40% 29.95 in 10.0 mi NW 13.8 mph - N/A   Clear
4:35 AM 54.7 °F - 30.4 °F 40% 29.96 in 10.0 mi NW 13.8 mph 20.7 mph N/A   Clear
4:55 AM 56.5 °F - 28.4 °F 34% 29.97 in 10.0 mi NW 15.0 mph 19.6 mph N/A   Clear
5:15 AM 55.4 °F - 28.8 °F 36% 29.97 in 10.0 mi NW 11.5 mph 18.4 mph N/A   Clear
5:35 AM 55.4 °F - 27.9 °F 35% 29.97 in 10.0 mi NNW 12.7 mph 18.4 mph N/A   Clear
5:55 AM 54.1 °F - 28.0 °F 37% 29.98 in 10.0 mi NNW 8.1 mph - N/A   Clear
6:15 AM 51.8 °F - 29.3 °F 42% 29.98 in 10.0 mi North 5.8 mph - N/A   Clear
6:35 AM 49.1 °F - 30.6 °F 49% 29.99 in 10.0 mi North 4.6 mph - N/A   Clear
6:55 AM 48.0 °F - 31.1 °F 52% 29.99 in 10.0 mi North 5.8 mph - N/A   Clear
7:15 AM 46.8 °F - 31.1 °F 55% 29.99 in 10.0 mi NNW 6.9 mph - N/A   Clear
7:35 AM 47.7 °F - 30.4 °F 51% 29.99 in 10.0 mi NNW 11.5 mph - N/A   Clear
7:55 AM 48.7 °F - 28.9 °F 46% 29.99 in 10.0 mi NW 5.8 mph - N/A   Clear
8:15 AM 46.4 °F 43.5 °F 30.0 °F 53% 29.99 in 10.0 mi NW 5.8 mph - N/A   Clear
8:35 AM 48.2 °F - 29.5 °F 48% 30.01 in 10.0 mi NW 5.8 mph - N/A   Clear
8:55 AM 50.7 °F - 28.9 °F 43% 30.00 in 10.0 mi NW 9.2 mph - N/A   Clear
9:15 AM 53.6 °F - 28.6 °F 38% 30.01 in 10.0 mi WNW 12.7 mph - N/A   Clear
9:35 AM 58.1 °F - 28.4 °F 32% 30.02 in 10.0 mi WNW 15.0 mph - N/A   Clear
9:55 AM 60.3 °F - 26.4 °F 28% 30.02 in 10.0 mi WNW 23.0 mph 31.1 mph N/A   Clear
10:15 AM 62.2 °F - 25.9 °F 25% 30.02 in 10.0 mi WNW 23.0 mph 28.8 mph N/A   Clear
10:35 AM 64.0 °F - 24.6 °F 22% 30.02 in 10.0 mi WNW 24.2 mph 34.5 mph N/A   Clear
10:55 AM 65.1 °F - 25.2 °F 22% 30.03 in 10.0 mi WNW 21.9 mph 31.1 mph N/A   Clear
11:15 AM 66.7 °F - 23.2 °F 19% 30.03 in 10.0 mi WNW 25.3 mph 33.4 mph N/A   Clear
11:35 AM 68.2 °F - 22.3 °F 18% 30.02 in 10.0 mi WNW 24.2 mph 33.4 mph N/A   Clear
11:55 AM 69.4 °F - 22.5 °F 17% 30.02 in 10.0 mi West 20.7 mph 29.9 mph N/A   Clear
12:15 PM 70.5 °F - 22.1 °F 16% 30.02 in 10.0 mi WNW 20.7 mph 29.9 mph N/A   Clear
12:35 PM 71.4 °F - 21.7 °F 15% 30.03 in 10.0 mi West 16.1 mph 25.3 mph N/A   Clear
12:55 PM 72.1 °F - 22.6 °F 16% 30.02 in 10.0 mi NW 19.6 mph 26.5 mph N/A   Clear
1:15 PM 72.5 °F - 22.1 °F 15% 30.02 in 10.0 mi West 16.1 mph 29.9 mph N/A   Clear
1:35 PM 73.8 °F - 23.2 °F 15% 30.01 in 10.0 mi West 17.3 mph 25.3 mph N/A   Clear
1:55 PM 73.6 °F - 21.7 °F 14% 30.01 in 10.0 mi WNW 13.8 mph 25.3 mph N/A   Clear
2:10 PM 74.5 °F - 22.1 °F 14% 30.01 in 10.0 mi NW 10.4 mph 24.2 mph N/A   Clear
2:35 PM 74.5 °F - 21.7 °F 14% 30.00 in 10.0 mi West 11.5 mph 25.3 mph N/A   Clear
2:55 PM 75.0 °F - 23.0 °F 14% 30.00 in 10.0 mi WNW 11.5 mph 24.2 mph N/A   Clear
3:15 PM 75.0 °F - 23.2 °F 14% 30.00 in 10.0 mi NNW 10.4 mph - N/A   Clear
3:35 PM 73.9 °F - 25.2 °F 16% 30.00 in 10.0 mi NNW 9.2 mph 17.3 mph N/A   Clear
3:55 PM 70.9 °F - 28.0 °F 20% 30.00 in 10.0 mi NNW 13.8 mph - N/A   Clear
4:15 PM 70.5 °F - 28.9 °F 21% 30.00 in 10.0 mi North 13.8 mph 19.6 mph N/A   Clear
4:35 PM 71.4 °F - 27.9 °F 20% 29.99 in 10.0 mi NNW 10.4 mph 20.7 mph N/A   Clear
4:55 PM 70.5 °F - 28.2 °F 21% 29.99 in 10.0 mi North 18.4 mph 25.3 mph N/A   Clear
5:15 PM 70.7 °F - 28.0 °F 20% 29.99 in 10.0 mi NNW 13.8 mph - N/A   Clear
5:35 PM 68.4 °F - 27.9 °F 22% 29.99 in 10.0 mi North 12.7 mph - N/A   Clear
5:55 PM 67.5 °F - 27.7 °F 23% 30.00 in 10.0 mi North 11.5 mph - N/A   Mostly Cloudy
6:15 PM 66.7 °F - 27.9 °F 23% 30.01 in 10.0 mi North 13.8 mph - N/A   Overcast
6:35 PM 65.8 °F - 27.9 °F 24% 30.03 in 10.0 mi NNE 5.8 mph 27.6 mph N/A Rain Light Rain
6:55 PM 64.8 °F - 30.2 °F 27% 30.05 in 10.0 mi ESE 4.6 mph - N/A Rain Light Rain
7:15 PM 63.7 °F - 31.8 °F 30% 30.05 in 10.0 mi West 8.1 mph - N/A   Overcast
7:35 PM 62.2 °F - 33.4 °F 34% 30.07 in 10.0 mi WNW 10.4 mph 24.2 mph N/A   Drizzle
7:55 PM 61.0 °F - 35.6 °F 39% 30.08 in 10.0 mi West 15.0 mph 25.3 mph N/A Rain Light Rain
8:15 PM 59.2 °F - 35.8 °F 42% 30.09 in 10.0 mi West 8.1 mph 24.2 mph N/A Rain Light Rain
8:35 PM 56.7 °F - 39.4 °F 52% 30.10 in 10.0 mi WNW 18.4 mph - N/A Rain Light Rain
8:55 PM 54.7 °F - 41.0 °F 60% 30.10 in 10.0 mi NW 10.4 mph 21.9 mph N/A Rain Rain
9:15 PM 53.6 °F - 41.4 °F 63% 30.09 in 10.0 mi NNW 8.1 mph - N/A Rain Light Rain
9:35 PM 53.8 °F - 41.9 °F 64% 30.12 in 10.0 mi NW 4.6 mph - N/A   Overcast
9:55 PM 52.9 °F - 44.6 °F 73% 30.13 in 7.0 mi West 6.9 mph - 0.01 in Rain Heavy Rain
10:15 PM 52.7 °F - 42.1 °F 67% 30.13 in 5.0 mi Calm Calm - 0.03 in Rain Rain
10:35 PM 51.3 °F - 45.9 °F 82% 30.14 in 5.0 mi West 3.5 mph - 0.08 in Rain Heavy Rain
10:55 PM 50.9 °F - 47.1 °F 87% 30.13 in 5.0 mi NW 3.5 mph - 0.15 in Rain Heavy Rain
11:15 PM 50.5 °F - 47.7 °F 90% 30.13 in 4.0 mi Calm Calm - 0.05 in Rain Heavy Rain
11:35 PM 49.5 °F - 47.7 °F 94% 30.12 in 10.0 mi SE 4.6 mph - 0.08 in Rain Light Rain
11:55 PM 49.5 °F - 47.1 °F 92% 30.10 in 10.0 mi ESE 8.1 mph - 0.08 in Rain Light Rain